SCP
0 0 0 0 0 0 0 0 0 0 0 0 0 0 0 0 0 0 0 0 0 0 0 0 -0 0 0 0 0 0 1 3 4 3 3 4 4 4 2 1 1 0 0 0
0 0 0 0 0 0 0 0 0 0 0 0 0 0 0 0 0 0 0 0 0 0 0 0 0 0 0 0 0 0 1 4 5 4 3 5 4 4 3 2 1 1 0 0
0 0 0 0 0 0 0 0 0 0 0 0 0 0 0 0 0 0 0 0 0 0 0 0 0 0 0 0 0 0 1 3 4 4 5 5 4 3 2 1 1 1 0 0
0 0 0 0 0 0 0 0 0 0 0 0 0 0 0 0 0 0 0 0 0 0 0 0 0 0 0 0 0 0 1 3 3 2 4 4 3 3 2 1 1 1 0 0
0 0 0 0 0 0 0 0 0 0 0 0 0 0 0 0 0 0 0 0 0 0 0 0 0 0 0 0 0 0 0 2 3 3 3 4 4 2 1 2 1 2 1 0
0 0 0 0 0 0 0 0 0 0 0 0 0 0 0 0 0 0 -0 -0 0 0 0 0 0 0 0 0 0 0 0 1 3 4 3 4 3 3 2 2 1 1 0 0
0 0 0 0 0 0 0 0 0 0 0 0 0 0 0 0 0 0 0 -0 -0 0 0 -0 0 -0 0 0 0 0 0 2 2 3 3 3 4 2 2 2 1 1 0 -0
0 0 0 0 0 0 0 0 0 0 0 0 0 0 0 0 0 0 0 -0 -0 0 0 -0 0 0 0 0 0 0 0 0 2 2 3 4 2 2 2 2 1 1 1 1
0 0 0 0 0 0 0 0 0 0 0 0 0 0 0 0 0 0 0 -0 -0 -0 -0 -0 -0 0 0 0 0 0 0 0 0 0 3 3 2 2 2 1 2 2 1 1
0 0 0 0 0 0 0 0 0 0 0 0 0 0 0 0 0 0 0 -0 -0 -0 -0 -0 -0 -0 0 0 0 0 0 0 0 0 0 2 2 1 1 1 1 1 1 1
0 0 0 0 0 0 0 0 0 0 0 0 0 0 0 0 0 0 0 0 -0 -0 0 0 0 0 0 0 0 0 0 0 0 0 0 0 3 1 1 1 1 2 2 1
0 0 0 0 0 0 0 0 0 0 0 0 0 0 0 0 0 0 0 0 0 -0 0 0 0 0 -0 0 0 0 0 0 0 0 0 0 0 2 2 2 2 2 1 1
0 0 0 0 0 0 0 0 0 0 0 0 0 0 0 0 0 0 0 0 0 0 -0 0 0 0 0 0 0 0 0 0 0 0 0 0 0 0 2 3 2 2 2 1
0 0 0 0 0 0 0 0 0 0 0 0 0 0 0 0 0 0 0 0 0 0 -0 -0 0 0 0 0 0 0 0 0 0 0 0 0 0 0 0 4 2 2 2 3
0 0 0 0 0 0 0 0 0 0 0 0 0 0 0 0 0 0 0 0 0 0 0 0 -0 0 0 0 0 0 0 0 0 0 0 0 0 0 0 2 4 3 4 4
0 0 0 0 0 0 0 0 0 0 0 0 0 0 0 0 0 0 0 0 0 0 0 0 -0 -0 0 0 0 0 0 0 0 0 0 0 0 0 0 1 4 5 5 3
0 0 0 0 0 0 0 0 0 0 0 0 0 0 0 0 0 0 0 0 0 0 0 0 0 0 0 0 0 0 0 0 0 0 0 0 0 0 0 0 1 3 3 5
0 0 0 0 0 0 0 0 0 0 0 0 0 0 0 0 0 0 0 0 0 0 0 0 0 0 0 0 0 0 0 0 0 0 0 0 0 0 0 0 1 1 3 3
0 0 0 0 0 0 0 0 0 0 0 0 0 0 0 0 0 0 0 0 0 0 0 0 0 0 0 0 0 0 0 0 0 0 0 0 0 0 0 0 1 1 2 3
0 0 0 0 0 0 0 0 0 0 0 0 0 0 0 0 0 0 0 0 0 0 0 0 0 0 0 0 0 0 0 0 0 0 0 0 0 0 0 0 0 1 1 1
0 0 0 0 0 0 0 0 0 0 0 0 0 0 0 0 0 0 0 0 0 0 0 0 0 0 0 0 0 0 0 0 0 0 0 0 0 0 0 0 0 1 1 1
0 0 0 0 0 0 0 0 0 0 0 0 0 0 0 0 0 0 0 0 0 0 0 0 0 0 0 0 0 0 0 0 0 0 0 0 0 0 0 0 0 1 1 1
0 0 0 0 0 0 0 0 0 0 0 0 0 0 0 0 0 0 0 0 0 0 0 0 0 0 0 0 0 0 -0 0 0 0 0 0 0 0 0 0 0 0 1 1
0 0 0 0 0 0 0 0 0 0 0 0 0 0 0 0 0 0 0 0 0 0 0 0 0 0 0 0 0 0 -0 0 0 0 0 0 0 0 0 0 0 1 1 1
0 0 0 0 0 0 0 0 0 0 0 0 0 0 0 0 0 0 0 0 0 0 0 0 0 0 0 0 -0 -0 -0 -0 0 0 0 0 -0 0 0 0 0 0 0 0
0 0 0 0 0 0 0 0 0 0 0 0 0 0 0 0 0 0 0 0 0 0 0 0 0 0 -0 0 -0 -0 -0 -0 0 0 0 0 0 0 0 0 0 0 0 0
Wind_Speed_500mb
7 3 6 12 9 16 17 19 29 30 27 29 42 46 46 44 37 40 48 52 56 58 61 62 68 72 73 61 56 52 65 75 87 97 99 96 99 102 98 97 95 90 83 77
2 2 4 11 5 3 9 23 28 18 14 31 37 54 36 15 18 27 37 45 46 49 45 46 52 56 52 49 51 51 62 75 85 92 99 95 99 102 98 95 94 92 88 84
5 7 7 5 5 11 14 17 26 36 40 32 20 27 2 7 17 30 40 44 47 49 53 54 60 57 57 51 42 45 57 71 85 90 95 92 86 96 95 95 93 93 88 87
1 4 6 5 5 15 19 8 28 37 31 16 13 16 14 13 18 28 41 54 55 58 60 56 60 63 60 60 47 40 53 65 76 77 91 100 106 102 94 94 87 81 82 88
3 7 7 1 3 12 14 27 31 32 21 15 2 12 8 18 17 29 42 55 58 60 60 65 62 63 60 58 54 40 45 59 66 70 82 94 101 98 76 82 89 86 77 83
6 5 3 3 12 7 22 22 4 5 3 4 5 10 21 9 12 27 44 60 59 64 66 61 58 58 64 57 57 36 33 53 63 73 80 83 99 90 89 80 84 74 79 86
11 3 2 2 14 4 25 20 8 6 4 7 2 21 18 1 12 20 34 50 55 59 62 65 66 65 65 64 62 50 11 35 59 67 79 76 107 99 96 91 82 76 78 88
9 6 1 4 7 9 9 8 5 9 9 23 31 12 5 17 8 21 34 44 52 59 64 63 62 64 57 63 58 56 33 18 40 57 85 103 92 85 88 87 79 80 83 74
7 7 5 14 5 6 5 4 4 7 16 12 8 10 15 13 12 33 47 57 61 62 64 66 66 62 60 58 56 51 46 18 26 48 57 73 77 79 74 72 85 80 73 71
6 11 2 2 3 5 5 3 5 2 9 12 12 28 19 10 23 28 39 52 59 57 62 64 62 66 63 57 53 44 41 34 15 33 42 56 65 70 78 79 81 78 68 63
8 7 3 13 7 5 4 6 4 4 7 9 14 12 6 3 14 26 37 49 58 59 61 60 68 66 65 59 52 47 38 35 24 6 32 49 51 61 68 85 82 78 72 64
13 7 9 15 22 18 15 10 7 6 5 11 15 25 15 4 13 32 42 52 55 55 58 59 68 66 68 61 58 51 41 34 31 20 7 35 57 51 67 75 81 81 79 71
15 6 9 5 4 5 9 15 15 13 12 17 11 14 15 17 36 37 43 56 54 53 57 59 69 68 70 66 63 55 45 36 32 28 14 10 38 54 57 65 72 73 73 74
20 13 18 15 19 16 26 33 29 18 11 27 36 55 48 42 35 41 56 52 52 54 56 58 65 68 67 67 60 57 49 39 36 33 22 5 23 38 52 54 60 68 70 72
16 16 27 36 38 36 39 41 35 37 36 23 43 43 47 42 26 44 48 48 52 59 60 57 65 70 65 63 68 57 46 44 42 35 32 16 5 21 40 48 52 54 63 70
13 9 13 18 32 35 41 39 37 41 38 33 39 45 13 29 42 47 47 47 55 57 65 55 70 65 64 58 63 63 54 45 42 39 35 25 7 10 26 47 47 59 62 65
14 8 6 13 9 28 27 14 15 11 15 20 23 32 30 31 33 45 49 44 50 55 72 54 71 71 71 70 61 60 61 51 42 41 37 31 19 13 13 21 42 59 66 66
14 12 6 10 17 9 4 9 13 20 26 29 33 34 27 29 40 50 40 30 53 57 66 67 73 70 69 64 57 50 49 50 45 44 38 32 29 25 19 17 24 49 63 67
29 15 5 7 7 24 14 12 11 12 17 20 25 23 23 29 40 30 21 47 53 58 65 66 68 62 59 61 50 46 44 47 47 44 36 33 36 34 29 24 22 35 54 62
22 19 9 7 7 10 3 13 12 8 13 18 20 17 20 19 10 20 46 55 52 53 66 68 65 57 54 53 48 43 41 41 47 48 40 38 40 43 43 37 37 27 34 51
11 9 21 18 15 16 10 24 17 5 7 17 19 19 17 13 19 42 51 49 50 50 65 66 61 55 54 53 49 43 35 35 37 45 44 42 41 39 47 46 46 38 34 40
20 19 11 10 14 20 32 20 12 3 6 13 17 18 21 26 33 36 39 46 49 54 65 67 63 56 56 54 50 46 31 21 22 32 40 44 44 43 39 42 45 45 41 39
12 12 11 18 11 3 46 15 27 17 18 18 17 14 17 26 32 34 40 43 42 49 62 62 62 57 56 55 55 46 35 16 10 22 23 25 32 38 43 45 46 41 46 44
13 18 8 8 15 27 33 41 36 28 26 18 18 16 17 24 31 35 36 39 36 45 58 59 59 59 61 58 63 49 36 19 10 2 10 16 20 29 38 44 45 39 42 51
6 17 19 15 23 23 34 32 25 21 22 20 18 18 18 19 27 31 33 33 30 40 54 53 56 58 56 60 60 54 39 25 16 9 4 4 14 23 29 27 30 32 40 47
19 20 13 11 16 11 8 4 9 18 20 17 15 15 13 19 25 28 30 26 26 35 48 50 53 53 55 56 59 56 41 29 20 15 6 7 14 11 14 20 22 26 34 39
Wind_Direction_500mb
35 323 98 339 297 281 290 286 303 304 307 321 303 302 307 313 308 318 330 328 315 306 306 304 306 302 298 283 272 270 236 235 230 225 219 213 217 221 223 225 228 228 226 225
324 171 115 333 309 358 313 309 314 300 303 314 307 298 312 319 5 16 6 359 353 342 332 327 322 318 310 293 280 272 237 232 230 233 224 218 221 225 227 228 230 231 229 226
273 104 338 327 139 347 321 301 314 300 315 293 300 292 50 51 21 21 9 355 351 345 337 334 333 330 332 322 296 269 237 230 229 229 226 216 218 222 222 227 230 231 231 226
232 101 353 338 164 349 315 279 299 303 322 312 14 292 308 353 352 16 6 359 351 345 339 332 335 335 340 335 318 280 235 232 232 221 218 219 219 218 225 229 230 230 228 222
63 329 353 290 340 327 298 310 290 299 287 289 50 253 314 347 353 2 356 353 352 346 336 332 333 334 338 343 334 303 241 226 230 217 222 223 221 222 222 222 225 222 225 222
313 317 215 302 303 303 320 289 307 189 216 275 56 329 295 340 356 350 349 352 353 344 334 330 333 335 339 346 348 330 238 224 223 218 226 229 228 219 222 223 228 226 226 225
326 112 155 212 317 345 351 352 351 329 322 284 150 306 277 329 46 7 348 346 346 342 338 332 336 338 339 343 356 356 313 228 224 220 224 239 232 220 223 228 225 225 227 228
353 161 7 21 332 319 353 352 37 304 299 299 298 241 322 150 73 9 2 351 345 344 340 333 333 334 333 337 348 0 360 224 220 222 218 219 224 225 223 227 224 224 226 224
330 260 274 328 323 273 106 313 350 248 265 278 239 261 191 188 339 358 354 349 350 342 338 333 331 332 334 333 338 355 1 4 207 209 231 229 235 231 227 226 228 226 226 226
181 291 263 294 232 101 282 72 258 159 296 287 262 286 262 281 342 339 347 342 341 338 336 333 331 332 332 333 334 344 357 6 5 210 208 228 232 237 234 233 233 233 231 230
171 213 241 308 196 264 209 203 169 246 246 282 301 295 132 335 335 333 335 335 336 335 334 332 330 329 329 328 331 334 344 356 359 25 207 210 215 230 232 238 236 233 235 234
196 192 276 283 307 269 242 241 182 245 250 242 283 285 127 89 344 339 334 327 330 328 329 327 328 327 329 325 327 328 328 340 350 356 326 213 217 214 226 233 237 236 235 234
169 194 299 263 153 147 214 215 228 247 252 234 267 274 173 264 344 337 330 327 326 324 329 331 331 327 326 324 322 321 325 319 332 342 349 231 212 212 231 233 234 236 235 237
173 205 218 248 285 293 277 273 266 235 238 275 256 281 297 323 330 327 334 329 324 323 322 322 330 327 324 321 317 317 306 312 315 317 328 318 196 201 207 227 231 233 232 233
198 239 236 247 258 260 260 274 270 252 252 251 283 288 300 317 319 322 323 328 326 330 325 320 329 326 325 323 319 314 309 297 302 299 308 315 222 208 210 209 222 225 225 227
188 253 245 266 264 265 271 270 265 262 262 259 263 275 302 309 312 318 318 324 324 325 327 324 328 324 321 322 318 315 304 293 287 283 286 293 261 191 202 214 214 222 220 217
186 222 241 272 336 301 280 259 213 204 230 245 264 284 309 307 314 315 315 315 320 320 324 321 326 324 324 323 320 313 309 296 280 267 267 278 267 220 189 191 213 220 224 220
192 193 216 289 316 255 88 205 214 234 256 257 262 281 287 294 304 306 308 315 322 323 326 322 326 325 323 323 315 309 300 291 276 259 250 254 254 241 211 210 203 214 218 221
214 184 219 258 252 287 282 217 215 205 280 263 249 259 275 296 308 306 331 331 324 325 329 327 328 325 325 330 319 308 296 288 272 253 235 237 246 236 229 220 215 219 217 218
189 218 204 164 263 260 214 170 130 99 274 200 218 256 282 302 283 304 327 330 327 327 337 336 335 336 340 338 331 312 296 283 273 247 227 223 233 232 228 222 233 214 216 220
162 187 218 232 244 270 239 146 136 246 343 193 222 265 269 269 270 301 318 323 329 329 342 341 338 344 347 346 337 321 303 277 268 250 230 222 232 233 229 227 233 225 220 212
176 181 195 196 234 257 143 134 200 277 239 246 252 260 276 284 296 312 316 324 332 334 345 345 345 350 355 356 349 336 325 304 256 244 226 219 225 235 236 236 234 233 226 218
206 197 183 204 211 204 189 212 218 261 275 271 256 259 282 294 305 314 320 327 334 338 348 349 347 353 0 3 357 348 352 353 236 219 223 232 233 238 243 242 240 235 227 227
224 197 231 188 228 228 227 239 258 259 263 259 259 265 287 299 305 312 321 327 334 341 351 356 357 359 2 7 6 3 11 28 42 129 224 234 246 256 255 250 242 240 230 229
195 167 215 245 266 260 256 251 263 256 251 247 257 265 281 296 306 313 323 327 332 341 352 357 4 3 9 13 11 11 15 30 26 6 325 298 274 264 260 255 244 234 229 232
190 212 206 224 198 244 245 273 257 236 238 243 247 268 290 305 309 317 323 328 332 341 353 357 9 12 15 20 19 19 20 31 30 16 10 220 234 232 238 237 239 235 231 232
Wind_Speed_850mb
7 3 6 12 9 16 17 19 29 30 27 29 42 46 46 44 37 40 48 52 56 58 61 62 68 72 73 61 56 52 65 75 87 97 99 96 99 102 98 97 95 90 83 77
2 2 4 11 5 3 9 23 28 18 14 31 37 54 36 15 18 27 37 45 46 49 45 46 52 56 52 49 51 51 62 75 85 92 99 95 99 102 98 95 94 92 88 84
5 7 7 5 5 11 14 17 26 36 40 32 20 27 2 7 17 30 40 44 47 49 53 54 60 57 57 51 42 45 57 71 85 90 95 92 86 96 95 95 93 93 88 87
1 4 6 5 5 15 19 8 28 37 31 16 13 16 14 13 18 28 41 54 55 58 60 56 60 63 60 60 47 40 53 65 76 77 91 100 106 102 94 94 87 81 82 88
3 7 7 1 3 12 14 27 31 32 21 15 2 12 8 18 17 29 42 55 58 60 60 65 62 63 60 58 54 40 45 59 66 70 82 94 101 98 76 82 89 86 77 83
6 5 3 3 12 7 22 22 4 5 3 4 5 10 21 9 12 27 44 60 59 64 66 61 58 58 64 57 57 36 33 53 63 73 80 83 99 90 89 80 84 74 79 86
11 3 2 2 14 4 25 20 8 6 4 7 2 21 18 1 12 20 34 50 55 59 62 65 66 65 65 64 62 50 11 35 59 67 79 76 107 99 96 91 82 76 78 88
9 6 1 4 7 9 9 8 5 9 9 23 31 12 5 17 8 21 34 44 52 59 64 63 62 64 57 63 58 56 33 18 40 57 85 103 92 85 88 87 79 80 83 74
7 7 5 14 5 6 5 4 4 7 16 12 8 10 15 13 12 33 47 57 61 62 64 66 66 62 60 58 56 51 46 18 26 48 57 73 77 79 74 72 85 80 73 71
6 11 2 2 3 5 5 3 5 2 9 12 12 28 19 10 23 28 39 52 59 57 62 64 62 66 63 57 53 44 41 34 15 33 42 56 65 70 78 79 81 78 68 63
8 7 3 13 7 5 4 6 4 4 7 9 14 12 6 3 14 26 37 49 58 59 61 60 68 66 65 59 52 47 38 35 24 6 32 49 51 61 68 85 82 78 72 64
13 7 9 15 22 18 15 10 7 6 5 11 15 25 15 4 13 32 42 52 55 55 58 59 68 66 68 61 58 51 41 34 31 20 7 35 57 51 67 75 81 81 79 71
15 6 9 5 4 5 9 15 15 13 12 17 11 14 15 17 36 37 43 56 54 53 57 59 69 68 70 66 63 55 45 36 32 28 14 10 38 54 57 65 72 73 73 74
20 13 18 15 19 16 26 33 29 18 11 27 36 55 48 42 35 41 56 52 52 54 56 58 65 68 67 67 60 57 49 39 36 33 22 5 23 38 52 54 60 68 70 72
16 16 27 36 38 36 39 41 35 37 36 23 43 43 47 42 26 44 48 48 52 59 60 57 65 70 65 63 68 57 46 44 42 35 32 16 5 21 40 48 52 54 63 70
13 9 13 18 32 35 41 39 37 41 38 33 39 45 13 29 42 47 47 47 55 57 65 55 70 65 64 58 63 63 54 45 42 39 35 25 7 10 26 47 47 59 62 65
14 8 6 13 9 28 27 14 15 11 15 20 23 32 30 31 33 45 49 44 50 55 72 54 71 71 71 70 61 60 61 51 42 41 37 31 19 13 13 21 42 59 66 66
14 12 6 10 17 9 4 9 13 20 26 29 33 34 27 29 40 50 40 30 53 57 66 67 73 70 69 64 57 50 49 50 45 44 38 32 29 25 19 17 24 49 63 67
29 15 5 7 7 24 14 12 11 12 17 20 25 23 23 29 40 30 21 47 53 58 65 66 68 62 59 61 50 46 44 47 47 44 36 33 36 34 29 24 22 35 54 62
22 19 9 7 7 10 3 13 12 8 13 18 20 17 20 19 10 20 46 55 52 53 66 68 65 57 54 53 48 43 41 41 47 48 40 38 40 43 43 37 37 27 34 51
11 9 21 18 15 16 10 24 17 5 7 17 19 19 17 13 19 42 51 49 50 50 65 66 61 55 54 53 49 43 35 35 37 45 44 42 41 39 47 46 46 38 34 40
20 19 11 10 14 20 32 20 12 3 6 13 17 18 21 26 33 36 39 46 49 54 65 67 63 56 56 54 50 46 31 21 22 32 40 44 44 43 39 42 45 45 41 39
12 12 11 18 11 3 46 15 27 17 18 18 17 14 17 26 32 34 40 43 42 49 62 62 62 57 56 55 55 46 35 16 10 22 23 25 32 38 43 45 46 41 46 44
13 18 8 8 15 27 33 41 36 28 26 18 18 16 17 24 31 35 36 39 36 45 58 59 59 59 61 58 63 49 36 19 10 2 10 16 20 29 38 44 45 39 42 51
6 17 19 15 23 23 34 32 25 21 22 20 18 18 18 19 27 31 33 33 30 40 54 53 56 58 56 60 60 54 39 25 16 9 4 4 14 23 29 27 30 32 40 47
19 20 13 11 16 11 8 4 9 18 20 17 15 15 13 19 25 28 30 26 26 35 48 50 53 53 55 56 59 56 41 29 20 15 6 7 14 11 14 20 22 26 34 39
Wind_Direction_850mb
35 323 98 339 297 281 290 286 303 304 307 321 303 302 307 313 308 318 330 328 315 306 306 304 306 302 298 283 272 270 236 235 230 225 219 213 217 221 223 225 228 228 226 225
324 171 115 333 309 358 313 309 314 300 303 314 307 298 312 319 5 16 6 359 353 342 332 327 322 318 310 293 280 272 237 232 230 233 224 218 221 225 227 228 230 231 229 226
273 104 338 327 139 347 321 301 314 300 315 293 300 292 50 51 21 21 9 355 351 345 337 334 333 330 332 322 296 269 237 230 229 229 226 216 218 222 222 227 230 231 231 226
232 101 353 338 164 349 315 279 299 303 322 312 14 292 308 353 352 16 6 359 351 345 339 332 335 335 340 335 318 280 235 232 232 221 218 219 219 218 225 229 230 230 228 222
63 329 353 290 340 327 298 310 290 299 287 289 50 253 314 347 353 2 356 353 352 346 336 332 333 334 338 343 334 303 241 226 230 217 222 223 221 222 222 222 225 222 225 222
313 317 215 302 303 303 320 289 307 189 216 275 56 329 295 340 356 350 349 352 353 344 334 330 333 335 339 346 348 330 238 224 223 218 226 229 228 219 222 223 228 226 226 225
326 112 155 212 317 345 351 352 351 329 322 284 150 306 277 329 46 7 348 346 346 342 338 332 336 338 339 343 356 356 313 228 224 220 224 239 232 220 223 228 225 225 227 228
353 161 7 21 332 319 353 352 37 304 299 299 298 241 322 150 73 9 2 351 345 344 340 333 333 334 333 337 348 0 360 224 220 222 218 219 224 225 223 227 224 224 226 224
330 260 274 328 323 273 106 313 350 248 265 278 239 261 191 188 339 358 354 349 350 342 338 333 331 332 334 333 338 355 1 4 207 209 231 229 235 231 227 226 228 226 226 226
181 291 263 294 232 101 282 72 258 159 296 287 262 286 262 281 342 339 347 342 341 338 336 333 331 332 332 333 334 344 357 6 5 210 208 228 232 237 234 233 233 233 231 230
171 213 241 308 196 264 209 203 169 246 246 282 301 295 132 335 335 333 335 335 336 335 334 332 330 329 329 328 331 334 344 356 359 25 207 210 215 230 232 238 236 233 235 234
196 192 276 283 307 269 242 241 182 245 250 242 283 285 127 89 344 339 334 327 330 328 329 327 328 327 329 325 327 328 328 340 350 356 326 213 217 214 226 233 237 236 235 234
169 194 299 263 153 147 214 215 228 247 252 234 267 274 173 264 344 337 330 327 326 324 329 331 331 327 326 324 322 321 325 319 332 342 349 231 212 212 231 233 234 236 235 237
173 205 218 248 285 293 277 273 266 235 238 275 256 281 297 323 330 327 334 329 324 323 322 322 330 327 324 321 317 317 306 312 315 317 328 318 196 201 207 227 231 233 232 233
198 239 236 247 258 260 260 274 270 252 252 251 283 288 300 317 319 322 323 328 326 330 325 320 329 326 325 323 319 314 309 297 302 299 308 315 222 208 210 209 222 225 225 227
188 253 245 266 264 265 271 270 265 262 262 259 263 275 302 309 312 318 318 324 324 325 327 324 328 324 321 322 318 315 304 293 287 283 286 293 261 191 202 214 214 222 220 217
186 222 241 272 336 301 280 259 213 204 230 245 264 284 309 307 314 315 315 315 320 320 324 321 326 324 324 323 320 313 309 296 280 267 267 278 267 220 189 191 213 220 224 220
192 193 216 289 316 255 88 205 214 234 256 257 262 281 287 294 304 306 308 315 322 323 326 322 326 325 323 323 315 309 300 291 276 259 250 254 254 241 211 210 203 214 218 221
214 184 219 258 252 287 282 217 215 205 280 263 249 259 275 296 308 306 331 331 324 325 329 327 328 325 325 330 319 308 296 288 272 253 235 237 246 236 229 220 215 219 217 218
189 218 204 164 263 260 214 170 130 99 274 200 218 256 282 302 283 304 327 330 327 327 337 336 335 336 340 338 331 312 296 283 273 247 227 223 233 232 228 222 233 214 216 220
162 187 218 232 244 270 239 146 136 246 343 193 222 265 269 269 270 301 318 323 329 329 342 341 338 344 347 346 337 321 303 277 268 250 230 222 232 233 229 227 233 225 220 212
176 181 195 196 234 257 143 134 200 277 239 246 252 260 276 284 296 312 316 324 332 334 345 345 345 350 355 356 349 336 325 304 256 244 226 219 225 235 236 236 234 233 226 218
206 197 183 204 211 204 189 212 218 261 275 271 256 259 282 294 305 314 320 327 334 338 348 349 347 353 0 3 357 348 352 353 236 219 223 232 233 238 243 242 240 235 227 227
224 197 231 188 228 228 227 239 258 259 263 259 259 265 287 299 305 312 321 327 334 341 351 356 357 359 2 7 6 3 11 28 42 129 224 234 246 256 255 250 242 240 230 229
195 167 215 245 266 260 256 251 263 256 251 247 257 265 281 296 306 313 323 327 332 341 352 357 4 3 9 13 11 11 15 30 26 6 325 298 274 264 260 255 244 234 229 232
190 212 206 224 198 244 245 273 257 236 238 243 247 268 290 305 309 317 323 328 332 341 353 357 9 12 15 20 19 19 20 31 30 16 10 220 234 232 238 237 239 235 231 232